SCP
3 4 6 6 4 2 2 2 2 3 3 2 2 2 1 1 1 1 1 1 1 1 1 1 1 1 1 1 1 1 2 1 1 1 1 1 1 1 1 1 1 1 1
3 4 6 6 4 3 2 2 2 3 3 2 2 2 2 1 1 1 1 1 1 1 1 1 1 1 1 1 2 2 2 2 1 1 1 1 1 1 1 1 1 1 2
4 4 5 5 4 3 3 2 3 3 3 2 2 2 2 2 2 2 1 2 2 2 2 1 1 1 2 2 2 3 3 2 2 1 1 1 1 1 1 1 2 2 2
4 4 4 5 5 4 4 3 3 3 3 3 2 2 3 3 2 2 2 2 2 2 2 2 2 1 2 2 3 3 3 3 3 2 1 1 1 1 1 1 2 2 3
4 4 4 5 5 4 4 4 4 3 3 3 3 3 3 3 2 2 2 2 2 2 2 2 2 2 2 2 3 3 3 3 3 2 1 1 1 1 2 2 2 2 2
4 4 4 4 4 4 4 4 3 3 3 3 3 3 3 3 2 2 2 2 2 2 3 2 2 2 2 2 3 3 3 3 2 2 2 2 2 2 2 2 2 2 2
4 3 3 3 3 3 3 3 2 2 2 3 3 3 2 2 2 2 2 2 2 3 3 3 2 2 3 2 2 3 3 2 2 1 2 2 2 2 2 3 2 2 2
4 3 3 3 3 3 2 2 2 2 2 2 2 2 2 2 2 2 2 2 3 3 3 2 2 2 2 2 2 2 2 2 1 1 2 2 2 2 2 3 3 3 2
3 3 3 3 3 3 2 2 2 2 2 2 2 2 2 2 2 2 2 2 3 3 3 2 2 2 2 2 2 2 2 1 1 1 1 2 2 2 2 2 2 2 2
3 3 3 3 3 3 3 3 3 2 2 2 2 2 2 2 2 2 2 2 3 3 3 2 3 3 3 3 2 2 2 2 1 1 1 2 2 2 2 2 2 2 2
3 3 3 3 3 3 3 3 3 2 2 2 2 2 2 2 2 2 2 2 2 3 3 2 2 3 3 3 3 2 2 2 1 1 2 2 2 2 2 2 2 2 2
3 3 3 2 2 2 2 2 2 2 2 2 2 2 2 2 2 2 2 2 2 2 3 2 2 2 2 3 3 2 2 2 2 2 2 2 3 2 2 2 2 2 2
2 2 3 2 2 2 3 3 3 3 2 2 2 2 2 3 3 3 3 3 3 3 3 3 2 2 2 3 3 2 2 2 2 2 2 2 2 2 2 2 2 2 3
2 2 2 3 3 3 3 3 3 2 2 2 2 2 3 3 3 3 3 3 3 3 4 4 3 2 2 2 2 2 2 2 2 2 2 2 2 2 2 2 2 3 3
2 2 2 3 3 4 4 3 3 2 2 2 2 2 2 3 3 3 3 3 3 4 4 4 3 3 3 3 2 2 3 3 3 3 3 3 2 2 2 2 2 2 3
2 2 2 3 3 3 3 3 3 2 2 2 2 2 2 3 3 3 4 4 4 4 4 4 3 3 4 3 3 3 3 3 3 3 2 3 3 2 2 2 2 2 2
2 2 2 2 3 3 3 2 2 2 2 2 3 3 4 4 4 4 4 5 5 4 5 5 4 4 4 4 4 4 3 3 3 3 2 2 2 3 2 2 2 2 2
2 2 2 2 2 3 2 2 2 3 3 3 4 4 5 5 4 5 5 5 5 5 5 5 5 5 6 6 5 4 4 3 3 2 1 1 2 2 2 2 2 2 2
2 2 2 2 2 2 2 2 3 3 4 4 4 4 5 5 5 5 5 6 6 6 5 6 6 7 8 8 5 4 3 3 2 2 1 1 1 1 2 2 2 2 2
2 2 3 3 2 2 2 2 3 3 3 3 3 3 4 4 4 4 4 5 5 5 5 6 7 8 8 7 4 3 2 2 1 1 1 1 1 1 1 1 1 1 1
2 2 3 3 3 2 2 3 3 2 2 2 2 2 2 2 2 3 3 3 3 4 4 5 6 6 6 4 3 2 2 2 1 1 1 1 1 1 1 1 1 1 1
2 2 2 2 2 2 2 2 2 2 2 1 1 1 1 1 1 2 2 2 2 2 3 3 4 4 4 3 2 2 2 2 2 1 1 1 1 1 1 1 1 1 1
2 2 2 2 2 2 2 2 2 2 2 1 1 1 1 1 1 1 1 1 1 2 2 2 3 3 3 3 2 2 2 2 2 2 1 1 1 1 1 1 1 1 1
3 2 2 2 2 2 2 2 2 2 2 1 1 1 1 1 1 1 1 1 2 2 2 2 2 3 3 3 3 3 2 3 2 2 1 1 1 1 1 1 1 1 1
3 2 2 2 2 2 2 3 3 2 1 2 2 2 2 2 2 1 2 2 2 2 2 2 3 3 4 4 4 4 3 3 2 2 1 1 1 1 1 1 1 1 1
3 2 2 3 2 2 2 2 2 2 1 2 2 2 3 2 2 2 2 2 2 2 2 2 3 4 4 4 4 4 4 3 3 2 1 1 1 1 1 1 1 1 1
Wind_Speed
7 10 13 9 8 8 8 9 9 9 10 11 11 11 10 10 10 9 9 9 9 9 9 9 9 8 8 8 8 7 7 7 7 7 7 7 7 7 7 7 7 8 11
8 11 13 10 9 8 8 9 9 9 10 10 10 11 10 10 9 9 8 8 8 8 8 8 8 7 7 7 7 7 7 7 6 6 7 8 7 6 6 6 2 6 9
9 11 13 10 9 9 9 8 9 9 10 10 10 10 10 10 9 8 8 7 7 8 8 7 7 7 6 6 7 7 7 7 6 6 7 7 9 8 6 5 5 7 7
9 10 11 12 10 10 9 9 8 9 9 10 10 9 9 9 9 8 8 7 7 7 7 7 7 6 6 6 6 6 6 6 7 8 8 5 6 10 7 6 6 7 6
8 9 11 12 10 10 10 9 8 9 9 10 10 9 8 8 8 8 8 8 7 7 7 7 6 6 5 5 5 5 6 6 7 10 6 5 4 9 7 6 7 7 7
8 9 12 11 10 10 10 9 8 8 8 9 9 9 8 8 8 8 7 7 7 7 7 7 6 5 5 5 4 5 5 7 11 8 5 5 5 8 7 6 6 7 8
8 8 12 11 10 10 9 8 8 8 7 7 7 7 7 8 7 7 7 7 6 6 6 6 6 5 5 5 4 4 5 6 9 5 4 4 4 7 6 6 6 6 7
7 8 10 11 10 9 9 8 7 7 6 6 6 6 6 6 6 6 6 6 5 6 6 6 6 6 6 5 4 4 4 8 8 4 4 4 6 6 6 7 6 6 7
7 7 8 9 9 9 8 8 7 6 6 5 5 5 5 6 6 6 6 5 5 5 5 6 6 5 5 6 5 5 6 8 9 4 5 3 7 7 7 7 8 8 8
6 6 6 7 7 7 8 8 7 7 6 6 5 5 5 6 7 7 8 6 6 5 5 5 6 5 5 6 7 7 8 10 9 6 4 4 7 6 7 7 8 8 9
6 5 5 5 5 4 5 7 7 7 6 6 7 7 7 6 6 7 5 5 6 6 6 6 6 6 7 9 9 9 9 8 6 4 3 5 6 6 7 7 7 8 9
7 6 5 5 5 4 3 4 3 3 4 4 3 4 4 3 3 3 5 6 6 7 8 8 8 10 10 6 8 11 6 7 6 4 3 6 6 7 8 7 7 7 8
7 6 5 4 3 3 2 2 2 2 2 4 3 3 3 3 3 3 3 5 6 8 6 7 9 6 5 3 4 5 5 5 4 3 4 7 6 7 8 7 7 7 8
6 6 5 4 3 2 1 1 2 1 2 2 3 3 2 2 2 2 3 3 3 3 3 4 4 4 4 5 5 5 6 5 4 3 3 6 6 7 7 7 7 7 8
6 6 5 4 4 2 1 1 1 1 2 2 2 3 3 2 3 2 2 2 3 2 3 3 3 3 5 5 5 6 6 6 5 4 3 7 6 6 7 7 8 8 8
6 5 4 4 4 3 2 2 1 2 1 2 2 2 3 3 2 3 3 3 3 3 2 3 3 4 5 4 5 5 6 5 4 4 4 5 8 7 7 7 8 8 9
5 5 5 5 4 4 3 2 2 2 2 2 2 2 3 4 3 3 3 3 2 2 2 3 4 4 4 5 6 5 5 5 5 5 4 4 5 8 8 7 7 8 8
5 5 5 3 4 4 2 2 2 2 2 2 2 2 3 3 4 4 3 3 2 3 3 3 4 4 3 4 4 4 4 4 5 5 4 4 3 3 6 7 7 6 7
5 5 4 3 3 3 3 2 2 1 2 2 2 1 2 3 4 4 3 2 3 3 2 3 2 3 3 3 3 3 3 4 4 4 4 4 4 3 3 6 7 7 6
5 4 4 4 3 3 3 2 2 2 2 1 1 0 2 3 3 3 3 2 3 2 2 2 2 2 2 2 3 1 2 2 3 3 4 4 4 5 5 4 5 7 9
4 4 5 4 4 3 2 2 2 2 1 1 1 0 2 3 2 3 3 2 3 2 2 3 2 3 2 1 2 1 2 3 3 3 3 3 4 5 5 5 5 4 5
4 4 4 4 4 4 2 2 1 1 1 1 1 1 1 2 2 2 2 2 2 2 2 2 2 2 1 1 2 2 2 3 3 3 3 4 4 4 5 6 5 5 5
4 4 3 3 4 3 3 2 2 1 1 1 1 1 1 2 2 2 2 1 1 2 1 2 3 3 2 2 2 3 2 1 1 3 3 3 3 3 4 4 6 5 6
4 4 3 3 3 3 3 2 2 2 2 1 1 1 1 1 1 1 1 1 2 2 1 3 2 3 3 2 2 2 3 2 3 2 3 3 4 4 4 4 4 5 5
4 4 4 3 3 3 2 2 2 2 1 1 1 2 1 2 1 1 1 2 2 2 1 2 1 3 2 3 2 2 2 2 4 4 3 2 3 3 4 4 3 3 4
4 4 4 4 3 2 2 2 2 1 1 1 1 1 1 1 1 1 0 1 1 1 1 2 2 3 2 3 3 3 2 2 2 3 3 3 3 3 3 3 3 3 3
Wind_Direction
147 136 139 151 151 149 146 146 145 145 146 147 147 148 146 147 149 148 146 144 141 139 138 136 135 136 136 138 134 129 124 120 120 127 133 133 134 138 143 148 172 149 122
143 138 144 153 152 148 148 148 144 143 145 146 147 149 151 152 152 151 150 149 146 144 143 144 143 143 142 142 143 141 139 138 139 140 153 157 150 147 156 169 210 103 131
141 139 150 151 150 149 146 142 140 142 143 147 149 150 152 154 154 154 151 151 150 149 148 149 150 150 148 149 150 152 152 152 158 167 197 193 157 158 166 166 142 129 143
139 143 149 146 150 150 146 143 143 148 149 152 151 150 153 156 155 155 154 155 155 154 154 155 155 155 157 162 163 164 165 167 175 195 209 194 168 149 162 165 159 155 157
139 144 138 149 150 147 143 145 150 152 154 154 154 154 155 154 154 157 162 164 166 166 165 165 164 162 162 165 168 172 178 182 192 214 206 188 174 142 164 173 172 168 166
146 151 138 152 152 149 148 151 155 157 157 158 158 158 159 158 160 164 166 167 171 172 174 176 174 172 170 173 176 180 190 199 216 210 195 194 176 142 167 181 182 175 171
146 144 138 149 150 151 154 156 155 154 154 155 157 163 164 164 166 170 175 177 180 180 179 180 178 178 178 178 185 193 202 215 237 211 196 192 155 140 171 190 197 187 179
140 135 131 142 146 149 154 155 152 150 152 154 157 161 166 169 172 176 183 186 186 187 187 188 190 190 193 192 197 204 215 240 234 227 212 189 132 155 184 192 195 197 195
140 136 141 150 153 157 158 156 154 153 155 160 164 167 173 180 186 191 195 194 194 196 194 195 199 196 198 203 208 216 223 241 251 217 219 187 142 177 196 201 201 203 202
141 137 143 149 152 165 163 156 163 164 169 174 174 179 184 192 198 203 206 198 205 207 203 202 207 206 207 210 212 218 225 236 239 225 211 146 146 190 207 212 212 209 205
144 144 151 151 154 171 165 149 170 174 175 187 186 186 205 209 202 199 199 192 210 213 208 208 218 222 222 211 210 217 226 235 227 230 208 130 164 201 213 214 216 214 212
161 159 155 154 157 169 157 149 180 189 174 206 197 193 213 210 226 226 165 196 211 215 214 209 219 224 229 218 197 208 227 236 239 220 162 150 188 210 217 216 213 210 214
162 161 157 158 163 171 162 169 176 193 186 202 196 204 213 228 216 224 206 194 205 215 220 205 215 222 226 236 243 226 232 242 239 234 160 156 190 212 215 215 214 211 216
165 165 161 160 159 177 187 182 196 198 202 211 188 216 207 226 238 227 230 229 223 219 219 231 224 219 232 234 243 246 234 237 236 232 165 163 196 214 216 215 213 214 222
169 168 166 170 160 173 187 247 209 243 222 202 212 203 223 227 236 232 234 239 247 241 225 226 237 232 237 233 238 241 241 235 237 237 188 175 197 214 220 220 218 217 221
170 169 166 180 168 178 186 209 223 233 229 238 219 209 224 236 229 235 229 233 242 243 251 249 241 232 236 239 242 241 244 236 225 233 233 187 192 205 220 226 226 225 226
174 172 176 182 174 187 199 211 213 223 226 237 225 215 230 238 226 240 242 239 243 241 230 240 247 244 238 232 233 234 234 233 230 224 233 234 205 198 209 223 228 229 233
177 173 179 180 172 182 196 218 233 238 239 240 231 219 226 245 243 247 244 249 247 245 237 229 240 246 242 243 239 237 231 219 222 222 227 229 238 228 196 199 217 229 234
178 178 175 169 169 181 184 203 228 233 250 248 230 239 237 238 240 250 257 263 247 247 251 251 229 253 242 244 241 226 234 226 216 217 222 230 229 231 224 179 201 219 231
178 180 173 171 168 179 180 186 207 215 221 231 223 254 263 248 243 256 245 244 255 250 250 254 242 236 246 243 261 249 234 223 220 216 226 220 221 225 229 225 211 209 218
170 174 177 175 163 179 189 210 202 209 228 225 218 192 272 272 253 254 269 240 257 255 254 240 234 215 226 228 244 238 214 204 201 218 223 229 218 220 227 233 237 237 211
163 170 178 176 166 189 186 218 222 241 241 226 227 162 246 264 265 244 265 262 257 249 227 234 237 253 238 217 259 244 218 192 207 214 213 220 228 220 219 225 233 237 251
166 171 178 176 178 189 180 192 174 177 221 187 194 174 214 240 252 274 236 256 256 249 214 222 222 230 237 227 241 273 263 246 213 198 220 225 230 237 232 224 228 233 239
164 164 165 170 172 169 181 185 188 209 223 217 220 147 162 177 214 233 233 239 263 279 250 237 202 228 231 230 215 267 288 297 257 224 210 210 225 234 245 246 237 230 238
154 155 152 147 151 159 171 169 198 210 222 197 188 151 175 147 179 215 228 246 264 271 264 271 233 247 248 254 244 238 253 253 255 260 252 242 231 229 233 237 245 245 238
149 151 146 145 145 145 162 169 190 189 198 185 177 144 161 138 146 116 256 269 257 269 246 248 245 242 261 263 263 256 255 261 248 252 253 254 258 251 245 249 244 244 241